COSMOS 1275 DEB

Satellite information

Favourite Embed

Satellite Type and Status

DEBRISIN ORBIT

Key statistics

Satellite COSMOS 1275 DEB at a glance.

Uptime

16216

Days in orbit

Revolutions

≈ 14.1

Per day

Orbit

LEO

Low Earth Orbit

Inclination

82.8

Latest

Satellite identification and parameters

Extended collection of information and parameters for COSMOS 1275 DEB.

Object identification

Identified? True

Debris? True

Object name: COSMOS 1275 DEB

International designator: 1981-053AU

Object number (NORAD): 12700

Object ID (CCSDS): 12700

Country: COMMONWEALTH OF INDEPENDENT STATES (CIS)

Current information (Y/N): Y

RCS size: SMALL

Orbital parameters

Period: 102.111 minutes

Inclination: 82.7794 deg

SMA: 7236.718 km

Apoapsis: 894.705 km

Periapsis: 822.462 km

RAAN: 56.7144 deg

Eccentricy: 0.00499143

Argument of periapsis: 98.6855 deg

Mean anomaly: 261.9979 deg

Mean motion: 14.10231024 rev/day

Mean motion (dot): 0.00002096 rev/day2

B* drag term: 0.0011611394 1/REarth

Two-line elements (TLE)

Creation date: Oct. 26, 2025, 2:54 a.m.

Reference frame: TEME

Reference center: EARTH

Epoch: Oct. 25, 2025, 8:15 p.m. UTC

TLE line 0: 0 COSMOS 1275 DEB

TLE line 1: 1 12700U 81053AU 25298.84438237 .00002096 00000-0 11611-2 0 9991

TLE line 2: 2 12700 82.7794 56.7144 0049914 98.6855 261.9979 14.10231024254130

Live tracking on map

Real-time ground track for satellite COSMOS 1275 DEB.

In-orbit conjunctions

A list of the most updated potential collisions computed for object COSMOS 1275 DEB.

Target Orbit TCA Probability of collision Miss distance Type
METEOR 2-11 DEB LEO 2025-06-07 17:55:09 0.0001086088 199.0 (m) DEBRIS
NOAA 16 DEB SSO 2025-03-30 02:46:33 0.0001623028 121.0 (m) DEBRIS
FENGYUN 1C DEB SSO 2024-12-04 07:18:06 0.0001068453 138.0 (m) DEBRIS

Associated space launch

Navigation satellite providing location information for the Tsiklon-B navigation system

COSMOS 1275 DEB was lifted into orbit during the mission ‘Kosmos-3M | Parus 27’, on board a Kosmos-3M space rocket.

The launch took place on June 4, 1981, 3:41 p.m. from 132/2.

For more information about the launch, click the button.

Launch to space Kosmos-3M | Parus 27
Kosmos-3M | Parus 27

Agency: N/A

Status: Launch Successful

Launch date: June 4, 1981, 3:41 p.m. UTC

Rocket: Kosmos-3M

Launch pad: 132/2

Location: Plesetsk Cosmodrome, Russian Federation

...

Latest news about this satellite

There are no fresh news available about this satellite. Check back as we update our databases every day.


Newsletter sign-up

Weekly statistics, charts and insights to help you stay on top of the space industry.